Location: Goodfare
(55.2420°N, 119.7689°W)
Time: 05:24:47
(UTC+00:00)

ISS - Pass Details

Date: 05 December 2021
Orbit: 413 x 423 km, 51.6° (Epoch: 18 January)

Event Time Altitude Azimuth Distance (km) Brightness Sun altitude
Rises 02:09:57 0° 274° (W) 2,384 1.5 -21.1°
Reaches altitude 10° 02:12:36 10° 253° (WSW) 1,514 0.2 -21.4°
Maximum altitude 02:14:48 16° 212° (SSW) 1,182 -1.0 -21.8°
Enters shadow 02:16:30 12° 179° (S) 1,385 -1.1 -22.0°
